Погода в Тингире

Марокко     31°31′17″N   5°31′32″W
темп.,
°C
ветер,
м/с
пор.,
м/с
влажн.,
%
обл.,
%
осадки,
мм/ч
давл.,
гПа
погр.,
м
4 марта, чт
чт401:00+10в12599 0.0 102039
04:00+8ссз12620 0.0 102022
07:00+7св116518 0.0 101922
10:00+9вюв1155100 0.0 1020338
13:00+12юз1344100 0.0 10181185
16:00+15зюз5530100 0.0 10151759
19:00+15з3430100 0.0 1014355
22:00+12с3441100 0.0 1016107
5 марта, пт
пт501:00+12сз1244100 0.0 101531
04:00+10сз2351100 0.0 101477
07:00+9з1160100 0.0 101322
10:00+11в224674 0.0 1014581
13:00+13в333947 0.0 10121479
16:00+15всв223146 0.0 10092199
19:00+13сз434355 0.1 1008798
22:00+10сз346146 0.0 1010300
6 марта, сб
сб601:00+11сз225767 0.1 101089
04:00+9ссз236598 0.3 101081
07:00+8ссв116856 0.3 101022
10:00+10всв34550 0.0 1012757
13:00+12в66426 0.1 10111580
16:00+13всв563980 0.3 10101696
19:00+11сз335690 2.9 1011429
22:00+8с2569100 7.1 1014420
7 марта, вс
вс701:00+8сз446183 7.3 1015184
04:00+7сз44590 0.0 101592
07:00+6сз33620 0.0 101647
10:00+9зсз34480 0.0 1017389
13:00+13ссз22360 0.0 10171224
16:00+14ссз22300 0.0 10141837
19:00+12ссз55400 0.0 1015507
22:00+10сз33520 0.0 1018181
8 марта, пн
пн801:00+9ссз11590 0.0 101822
04:00+8зюз01630 0.0 101723
07:00+7сз11620 0.0 101822
10:00+9зсз11450 0.0 1019408
13:00+13зюз34390 0.0 10181787
16:00+15зюз563341 0.0 10152175
19:00+15зсз243356 0.0 1015665
22:00+12с224817 0.0 101734